Flag for Puerto Rico Weather past 2 weeks in San Juan, Puerto Rico

Now
85 °F

Scattered clouds.


Feels Like: 90 °F
Forecast: 77 / 87 °F
Wind: 7 mph from Northwest

Location: Luis Munoz Marin


UV Index: 10 (Very high)

Visibility: 10 mi


Pressure: 30.02 "Hg

Humidity: 63%

Dew point: 71 °F

Location of San JuanLocation

Historic Weather in San Juan

°F

San Juan temperature yesterday

Maximum temperature yesterday: 91 °F (at 3:56 PM)
Minimum temperature yesterday: 80 °F (at 12:56 AM)
Average temperature yesterday: 85 °F

Past Weeks' High & Low Weather Summary

 TemperatureHumidityPressure
High93 °F (Apr 22, 12:56 PM)97% (Apr 18, 2:56 AM)30.14 "Hg (Apr 18, 2:56 AM)
Low75 °F (Apr 12, 3:56 AM)41% (Apr 22, 12:56 PM)29.85 "Hg (Apr 22, 4:56 PM)
Average81 °F69%30.00 "Hg
* Reported Apr 9 9:56 AM — Apr 24 9:56 AM, San Juan, Weather by CustomWeather, © 2014

Note: Actual official high and low records may vary slightly from our data, if they occured in-between our weather recording intervals... More about our weather records

Advertising

Historic Weather Conditions — Data for Previous 24 hours

 ConditionsComfort  
Time TempWeatherWind HumidityBarometerVisibility
9:56 AM
Apr 24
85 °FScattered clouds.7 mph63%30.02 "Hg10 mi
8:56 AM84 °FScattered clouds.7 mph65%30.02 "Hg10 mi
7:56 AM82 °FScattered clouds.6 mph72%30.00 "Hg10 mi
6:56 AM79 °FPassing clouds.No wind79%29.99 "Hg10 mi
5:56 AM78 °FPassing clouds.No wind79%29.98 "Hg10 mi
4:56 AM79 °FClear.No wind79%29.96 "Hg10 mi
3:56 AM80 °FPassing clouds.No wind79%29.96 "Hg10 mi
2:56 AM80 °FClear.3 mph76%29.96 "Hg10 mi
1:56 AM81 °FClear.5 mph74%29.97 "Hg10 mi
12:56 AM82 °FClear.5 mph72%29.98 "Hg10 mi
11:56 PM
Apr 23
82 °FPassing clouds.6 mph72%30.00 "Hg10 mi
10:56 PM82 °FPassing clouds.3 mph74%30.00 "Hg10 mi
9:56 PM83 °FPassing clouds.5 mph70%29.99 "Hg10 mi
8:56 PM84 °FPassing clouds.7 mph67%29.97 "Hg10 mi
7:56 PM85 °FPassing clouds.3 mph65%29.95 "Hg10 mi
6:56 PM86 °FScattered clouds.5 mph57%29.93 "Hg10 mi
5:56 PM88 °FScattered clouds.9 mph54%29.91 "Hg10 mi
4:56 PM90 °FScattered clouds.9 mph50%29.89 "Hg10 mi
3:56 PM91 °FScattered clouds.7 mph45%29.89 "Hg10 mi
2:56 PM90 °FScattered clouds.6 mph48%29.90 "Hg10 mi
1:56 PM90 °FScattered clouds.13 mph54%29.92 "Hg10 mi
12:56 PM88 °FScattered clouds.12 mph59%29.95 "Hg10 mi
11:56 AM87 °FScattered clouds.12 mph59%29.96 "Hg10 mi
10:56 AM89 °FScattered clouds.6 mph48%29.98 "Hg10 mi
Weather by CustomWeather, © 2014

See weather overview